Regional Weather Roundup
Issued by NWS Midland/Odessa, TX

Skip options and go directly to product.
Home | Oldest Version | Next Version | Current Version | All | Text Only | Save Text | Print | Product List | Glossary On

Skip product version selection by date and time.   
119
ASUS44 KMAF 291302
RWRMAF
MIDLAND AREA WEATHER ROUNDUP
NATIONAL WEATHER SERVICE MIDLAND TX
800 AM CDT TUE JUL 29 2014

...IN SOUTHWEST TEXAS AND SOUTHEAST NEW MEXICO...

CITY           SKY/WX    TMP DP  RH WIND       PRES   REMARKS
ALPINE         CLEAR     69  57  67 SW3       30.30S
ANDREWS        FAIR      72  62  72 E6        30.22R
ARTESIA        CLOUDY    75  64  69 NE5       30.22R
BIG SPRING     SUNNY     74  62  65 NE6       30.22R
CARLSBAD       CLOUDY    76  62  62 N5        30.19R
DRYDEN           N/A     79  64  60 NE3       30.12R
FORT STOCKTON  CLEAR     73  58  59 S5        30.17R
GUAD PASS      MOCLDY    66  60  81 NE13      30.33R
HOBBS          PTSUNNY   70  59  68 NE10      30.25R
MARFA          CLEAR     61  57  88 NE6       30.29S
MIDLAND AIRPK  SUNNY     74  65  73 E6        30.20S HAZE
MIDLAND INTL   SUNNY     74  65  73 E8        30.19R
ODESSA         SUNNY     74  64  71 E8        30.20R
PECOS          CLEAR     73  59  62 E6        30.13S
PRESIDIO       FAIR      80  55  41 MISG      30.12S
SEMINOLE       MOSUNNY   70  61  73 CALM      30.25R
SNYDER         MOSUNNY   68  59  73 NE6       30.21R
WINK           PTCLDY    77  63  61 E12       30.14S
$$
...OTHER STATIONS IN TEXAS...

CITY           SKY/WX    TMP DP  RH WIND       PRES   REMARKS
ABILENE        SUNNY     73  61  65 E6        30.18R
AMARILLO       CLOUDY    65  60  84 S9        30.27R
AUSTIN         MOSUNNY   76  71  85 N3        30.10R
BROWNSVILLE      N/A     79  77  94 MISG      30.07R
CORPUS CHRISTI MOSUNNY   74  73  97 CALM      30.07R FOG
DALLAS FTW     CLOUDY    78  61  55 E8        30.14R
DEL RIO        SUNNY     79  67  66 E8        30.08R
EL PASO        TSTM      69  63  81 NW12      30.19R
HOUSTON INT    PTSUNNY   81  76  84 W3        30.08R
LUBBOCK        LGT RAIN  64  61  90 SE7       30.26R
SAN ANGELO     SUNNY     73  67  81 NE5       30.15R
SAN ANTONIO    MOSUNNY   78  69  73 CALM      30.11R
WACO           MOSUNNY   75  67  76 NE3       30.12R
WICHITA FALLS  NOT AVBL
$$
...OTHER LOCATIONS IN NEW MEXICO...

CITY           SKY/WX    TMP DP  RH WIND       PRES   REMARKS
ALAMAGORDO     LGT RAIN  66  66 100 NE16G22   30.24S
ALBUQUERQUE    PTCLDY    67  61  81 CALM      30.32R
CANNON AFB     DRIZZLE   66  64  94 E5        30.31R
CLOVIS         NOT AVBL
HOLLOMAN AFB   MOCLDY    66  66 100 NE16      30.22F
ROSWELL        LGT RAIN  69  65  86 NW8       30.24R
RUIDOSO        LGT RAIN  57  57 100 CALM      30.44R VSB 3/4
SANTA FE       MOCLDY    61  58  90 E3        30.36S
TRUTH OR CONSE PTCLDY    67  61  81 N6        30.26S
TUCUMCARI      RAIN      68  65  90 SW15      30.27R
$$

USA.gov is the U.S. government's official web portal to all federal, state and local government web resources and services.